Torna al catalogo

COSMOS 1610

AttivoMilitarePO
NORAD 15398·PAYLOAD·🇷🇺 Russia

Lanciato Nov 15, 1984 da Plesetsk Cosmodrome

Loading…

Prossimi Passaggi (prossime 24 ore)

TLE

AggiornatoSource: Space-Track

Epoca: Sep 14, 2026, 21:46 UTC

1 15398U 84118A   26257.90751307  .00000044  00000-0  30897-4 0  9991
2 15398  82.9454  67.2101 0030585 248.6848 277.4195 13.73965398 97193

Traccia COSMOS 1610 in tempo reale con AllMySat

Download on the App Store